Weather History for Fayetteville, AR

Change the Weather History Date:

Friday, July 5, 2013

  Actual Average Record
Temperature  
Mean Temperature 72 °F 77 °F  
Max Temperature 88 °F 88 °F 100 °F (2012)
Min Temperature 56 °F 66 °F 50 °F (1972)
Cooling Degree Days 7 12  
Month to date cooling degree days 20 58  
Year to date cooling degree days 446 416  
Since 1 June cooling degree days 310 303  
Growing Degree Days 21 (Base 50)    
Moisture  
Dew Point 57 °F    
Average Humidity 66    
Maximum Humidity 100    
Minimum Humidity 31    
Precipitation  
Precipitation 0.00 in 0.13 in 0.47 in (2007)
Month to date precipitation 0.00 0.69  
Year to date precipitation 25.47 25.88  
Sea Level Pressure  
Sea Level Pressure 29.99 in    
Wind  
Wind Speed 3 mph (South)    
Max Wind Speed 15 mph    
Max Gust Speed 31 mph    
Visibility 9 miles    
Events      
T = Trace of Precipitation, MM = Missing Value Source: NWS Daily Summary

Daily Weather History Graph

Daily Weather History Graph

Search for Another Location

Airport:

Trip Planner

Search our weather history database for the weather conditions in past years. The results will help you decide how hot, cold, wet, or windy it might be!

Date:

Astronomy

Jul. 05, 2013 Rise Set
Actual Time 6:05 AM CDT 8:36 PM CDT
Civil Twilight 5:35 AM CDT 9:06 PM CDT
Nautical Twilight 4:58 AM CDT 9:43 PM CDT
Astronomical Twilight 4:17 AM CDT 10:24 PM CDT
Moon 4:03 AM CDT (7/5) 6:34 PM CDT (7/5)
Length of Visible Light 15h 31m
Length of Day
14h 31m
Waning Crescent, 6% of the Moon is Illuminated
Jul 5
Waning Crescent
Jul 8
New
Jul 15
First Quarter
Jul 22
Full
Jul 29
Last Quarter

Hourly Weather History & Observations

Time (CDT) Temp. Heat Index Dew Point Humidity Pressure Visibility Wind Dir Wind Speed Gust Speed Precip Events Conditions
12:53 AM 60.1 °F - 57.9 °F 93% 30.01 in 6.0 mi Calm Calm - N/A   Clear
1:53 AM 61.0 °F - 57.9 °F 90% 30.00 in 7.0 mi Calm Calm - N/A   Clear
2:53 AM 57.9 °F - 57.0 °F 97% 29.99 in 5.0 mi Calm Calm - N/A   Clear
3:53 AM 57.9 °F - 55.9 °F 93% 29.99 in 5.0 mi Calm Calm - N/A   Clear
4:53 AM 57.0 °F - 55.0 °F 93% 30.01 in 7.0 mi Calm Calm - N/A   Clear
5:53 AM 55.9 °F - 55.0 °F 97% 30.02 in 5.0 mi Calm Calm - N/A   Clear
6:53 AM 57.0 °F - 55.9 °F 96% 30.02 in 5.0 mi Calm Calm - N/A   Clear
7:53 AM 62.1 °F - 57.9 °F 86% 30.04 in 9.0 mi Calm Calm - N/A   Clear
8:53 AM 71.1 °F - 60.1 °F 68% 30.04 in 10.0 mi Calm Calm - N/A   Clear
9:53 AM 79.0 °F - 57.9 °F 48% 30.04 in 10.0 mi South 6.9 mph - N/A   Clear
10:53 AM 82.0 °F 81.6 °F 55.9 °F 41% 30.03 in 10.0 mi SSW 9.2 mph 18.4 mph N/A   Clear
11:53 AM 84.0 °F 83.3 °F 57.0 °F 40% 30.02 in 10.0 mi SW 10.4 mph 17.3 mph N/A   Clear
12:53 PM 84.9 °F 83.9 °F 57.0 °F 38% 30.01 in 10.0 mi SSW 8.1 mph - N/A   Clear
1:53 PM 84.9 °F 83.9 °F 57.0 °F 38% 30.01 in 10.0 mi South 9.2 mph - N/A   Mostly Cloudy
2:53 PM 87.1 °F 85.9 °F 57.0 °F 36% 29.98 in 10.0 mi South 6.9 mph - N/A   Partly Cloudy
3:53 PM 87.1 °F 84.9 °F 53.1 °F 31% 29.97 in 10.0 mi Calm Calm - N/A   Clear
4:53 PM 87.1 °F 85.1 °F 54.0 °F 32% 29.96 in 10.0 mi SE 6.9 mph - N/A   Partly Cloudy
5:53 PM 87.1 °F 85.3 °F 55.0 °F 33% 29.94 in 10.0 mi SE 5.8 mph - N/A   Clear
6:53 PM 84.9 °F 83.3 °F 54.0 °F 34% 29.94 in 10.0 mi SSE 6.9 mph - N/A   Clear
7:53 PM 82.0 °F 81.6 °F 55.9 °F 41% 29.93 in 10.0 mi SE 3.5 mph - N/A   Clear
8:53 PM 73.9 °F - 61.0 °F 64% 29.93 in 10.0 mi Calm Calm - N/A   Clear
9:53 PM 69.1 °F - 59.0 °F 70% 29.95 in 10.0 mi Calm Calm - N/A   Clear
10:53 PM 64.0 °F - 59.0 °F 84% 29.97 in 10.0 mi SSW 4.6 mph - N/A   Clear
11:53 PM 64.0 °F - 59.0 °F 84% 29.98 in 10.0 mi Calm Calm - N/A   Clear